Temp
79 78 77 77 76 76 76 77 77 76 76 76 77 76 75 74 73 76 76 73 78 78 77 76 77 76 76 76 76 76 76 75 75
78 77 76 76 76 76 76 77 77 76 76 76 76 75 73 72 76 74 71 73 78 78 77 77 76 76 76 75 75 75 75 75 75
77 77 76 76 76 76 77 77 77 75 75 75 75 73 72 72 73 75 74 75 77 78 76 77 76 76 76 75 75 75 75 74 75
77 76 76 76 76 76 76 76 76 75 75 74 73 72 71 68 72 77 73 75 78 77 76 76 76 75 76 75 74 74 74 74 74
75 74 74 75 75 75 75 75 75 75 74 72 71 71 69 67 74 75 73 76 78 77 77 76 75 75 74 74 74 73 73 73 72
73 72 72 73 74 74 74 74 74 72 71 71 70 69 68 69 73 70 74 76 78 77 76 75 75 74 74 73 73 72 72 72 72
76 71 70 72 72 73 74 74 72 70 67 66 68 65 67 71 71 70 74 77 78 76 75 74 74 73 73 72 72 72 71 71 71
75 69 70 70 68 71 72 71 70 68 69 67 65 66 68 70 70 71 73 76 78 77 74 74 73 73 73 72 72 71 71 71 71
76 71 70 71 70 70 71 70 70 70 70 70 69 69 69 70 69 69 70 74 77 77 75 74 73 73 73 72 72 71 71 71 71
70 73 71 70 72 72 71 72 72 72 72 73 72 72 70 71 70 68 68 71 74 76 76 74 74 73 73 73 72 72 71 71 71
70 70 71 72 73 73 72 73 73 74 74 72 72 71 71 70 70 68 66 69 71 75 76 75 74 74 74 73 73 72 72 72 72
72 72 71 72 73 73 72 73 74 73 76 71 72 71 70 70 70 68 67 67 67 70 75 75 75 74 75 75 75 74 73 72 72
69 71 70 71 71 71 70 72 72 72 73 71 70 70 70 70 70 70 68 67 69 67 70 72 74 75 75 75 76 75 73 73 72
70 69 69 72 70 70 69 71 72 71 70 71 69 68 69 70 73 69 69 67 68 67 67 67 68 70 73 75 75 75 74 73 72
69 68 70 69 69 69 69 71 72 72 72 73 72 66 68 69 67 68 71 69 68 67 67 66 67 66 69 72 74 75 74 73 72
69 69 68 70 68 69 71 69 69 69 72 67 66 67 66 66 66 67 66 68 69 68 67 65 65 66 67 69 71 72 73 73 72
71 67 70 69 68 67 68 69 67 68 66 66 65 59 62 63 66 66 68 68 68 68 69 67 67 66 66 66 67 69 71 73 73
69 70 68 69 69 67 67 67 67 64 66 68 62 58 58 58 62 64 66 68 67 70 69 70 70 69 65 65 65 64 67 71 73
68 68 69 68 69 67 67 68 68 67 63 63 68 61 64 59 55 61 65 69 69 69 69 70 69 67 67 64 63 62 64 69 72
67 67 67 67 68 66 67 65 64 66 65 63 63 63 61 61 58 53 59 65 68 69 70 70 70 71 69 66 63 63 65 69 70
MSLP
1017.05 1017.17 1017.27 1017.43 1017.69 1017.86 1018.07 1018.28 1018.48 1018.83 1018.93 1018.97 1019.04 1019.03 1019.27 1019.23 1019.14 1019.33 1019.49 1019.82 1019.97 1020.04 1020.09 1020.28 1020.30 1020.42 1020.54 1020.47 1020.52 1020.52 1020.40 1020.38 1020.41
1016.85 1017.06 1017.28 1017.44 1017.72 1017.92 1018.16 1018.39 1018.67 1019.11 1019.23 1019.25 1019.23 1019.33 1019.37 1019.38 1019.11 1019.44 1019.87 1020.07 1020.23 1020.31 1020.45 1020.51 1020.58 1020.69 1020.71 1020.80 1020.86 1020.87 1020.89 1020.78 1020.73
1016.83 1017.10 1017.23 1017.37 1017.68 1017.93 1018.16 1018.33 1018.69 1019.07 1019.33 1019.53 1019.51 1019.50 1019.56 1019.62 1019.36 1019.56 1019.92 1020.15 1020.36 1020.49 1020.69 1020.65 1020.81 1020.87 1020.93 1021.00 1021.06 1021.07 1021.06 1021.09 1021.04
1016.77 1017.02 1017.34 1017.49 1017.69 1017.94 1018.12 1018.33 1018.66 1018.90 1019.15 1019.44 1019.68 1019.58 1019.64 1019.73 1019.47 1019.62 1019.97 1020.31 1020.39 1020.70 1020.83 1020.89 1021.00 1021.10 1021.04 1021.17 1021.27 1021.29 1021.27 1021.34 1021.29
1016.64 1016.91 1017.25 1017.44 1017.67 1017.90 1018.21 1018.31 1018.61 1018.89 1019.08 1019.33 1019.40 1019.55 1019.51 1019.55 1019.29 1019.67 1020.01 1020.28 1020.52 1020.66 1020.86 1020.96 1021.15 1021.26 1021.34 1021.35 1021.49 1021.51 1021.57 1021.58 1021.57
1016.58 1016.81 1017.08 1017.36 1017.71 1017.96 1018.24 1018.54 1018.68 1018.82 1019.14 1019.35 1019.41 1019.33 1019.23 1019.38 1019.25 1019.77 1019.94 1020.16 1020.53 1020.78 1020.87 1021.04 1021.23 1021.39 1021.53 1021.57 1021.62 1021.65 1021.70 1021.78 1021.77
1016.15 1016.54 1016.94 1017.19 1017.56 1017.89 1018.22 1018.44 1018.77 1019.07 1019.22 1019.43 1019.59 1019.54 1019.12 1019.04 1019.09 1019.64 1019.84 1020.05 1020.34 1020.73 1020.97 1021.13 1021.29 1021.42 1021.58 1021.63 1021.70 1021.74 1021.75 1021.78 1021.83
1015.87 1016.28 1016.64 1017.08 1017.45 1017.72 1018.03 1018.43 1018.75 1018.99 1019.04 1019.20 1019.40 1019.43 1019.14 1019.00 1018.92 1019.36 1019.54 1019.90 1020.20 1020.55 1020.93 1021.08 1021.24 1021.35 1021.49 1021.69 1021.72 1021.75 1021.79 1021.81 1021.78
1015.52 1015.94 1016.39 1016.72 1017.12 1017.46 1017.70 1018.02 1018.24 1018.42 1018.57 1018.74 1018.93 1018.98 1018.82 1018.64 1018.95 1019.31 1019.51 1019.76 1019.98 1020.27 1020.72 1020.97 1021.14 1021.32 1021.42 1021.54 1021.66 1021.79 1021.77 1021.78 1021.74
1015.50 1015.48 1015.97 1016.27 1016.62 1016.96 1017.32 1017.43 1017.70 1017.88 1017.81 1017.99 1018.23 1018.36 1018.35 1018.25 1018.79 1019.16 1019.41 1019.71 1019.89 1020.02 1020.36 1020.69 1020.92 1021.10 1021.34 1021.43 1021.51 1021.62 1021.67 1021.64 1021.54
1015.00 1015.19 1015.47 1015.74 1015.99 1016.24 1016.55 1016.84 1017.02 1017.20 1017.25 1017.32 1017.50 1017.74 1017.93 1018.07 1018.40 1018.95 1019.35 1019.50 1019.82 1019.96 1020.10 1020.27 1020.55 1020.75 1020.85 1021.02 1021.16 1021.24 1021.34 1021.35 1021.35
1014.45 1014.84 1014.96 1015.04 1015.46 1015.72 1015.95 1016.22 1016.48 1016.68 1016.59 1016.91 1017.01 1017.28 1017.49 1017.87 1018.12 1018.54 1019.04 1019.37 1019.57 1019.71 1019.85 1020.05 1020.19 1020.33 1020.47 1020.55 1020.68 1020.74 1020.85 1020.92 1020.95
1014.10 1014.39 1014.51 1014.52 1014.89 1015.16 1015.56 1015.80 1016.07 1016.23 1016.36 1016.59 1016.74 1017.01 1017.11 1017.40 1017.81 1018.05 1018.54 1018.90 1019.18 1019.51 1019.59 1019.69 1019.89 1019.97 1020.06 1020.07 1020.15 1020.22 1020.33 1020.48 1020.54
1013.52 1013.94 1013.93 1013.90 1014.47 1014.80 1015.13 1015.38 1015.51 1015.79 1016.01 1016.22 1016.42 1016.70 1017.01 1017.10 1017.22 1017.65 1017.87 1018.32 1018.63 1018.98 1019.21 1019.43 1019.61 1019.69 1019.67 1019.70 1019.73 1019.73 1019.78 1019.87 1020.03
1012.91 1013.07 1013.39 1013.70 1014.01 1014.33 1014.75 1014.91 1015.10 1015.21 1015.50 1015.71 1016.08 1016.40 1016.59 1016.72 1017.11 1017.24 1017.30 1017.59 1017.93 1018.31 1018.61 1018.84 1019.05 1019.26 1019.42 1019.46 1019.39 1019.38 1019.41 1019.49 1019.66
1012.14 1012.54 1012.76 1013.06 1013.47 1013.67 1013.89 1014.48 1014.45 1014.76 1014.92 1015.63 1015.99 1016.24 1016.31 1016.54 1016.66 1016.85 1017.07 1017.19 1017.25 1017.46 1017.83 1018.37 1018.60 1018.73 1018.91 1018.97 1018.98 1019.01 1019.05 1019.08 1019.20
1011.49 1011.65 1011.87 1012.20 1012.55 1012.90 1013.24 1013.52 1014.15 1014.51 1014.74 1014.98 1015.81 1016.25 1016.52 1016.37 1016.31 1016.51 1016.73 1016.84 1016.91 1017.01 1017.20 1017.59 1017.90 1018.03 1018.16 1018.26 1018.36 1018.49 1018.55 1018.64 1018.72
1010.61 1010.91 1011.30 1011.44 1011.79 1012.14 1012.44 1012.94 1013.45 1014.07 1014.38 1014.33 1014.72 1015.78 1015.87 1016.22 1016.02 1015.89 1016.03 1016.20 1016.40 1016.19 1016.36 1016.45 1016.98 1017.13 1017.39 1017.65 1017.70 1017.84 1018.05 1018.17 1018.22
1009.86 1009.98 1010.35 1010.76 1011.03 1011.34 1011.80 1012.24 1012.57 1013.21 1013.75 1014.31 1014.22 1014.19 1014.67 1015.28 1016.04 1015.58 1015.46 1015.60 1015.77 1015.77 1015.76 1016.09 1016.13 1016.55 1016.67 1016.92 1016.98 1017.10 1017.37 1017.60 1017.79
1009.24 1009.37 1009.54 1009.94 1010.19 1010.44 1010.96 1011.43 1011.90 1012.18 1012.93 1013.30 1013.79 1014.25 1014.23 1014.87 1015.11 1015.49 1015.00 1015.06 1014.90 1015.02 1015.03 1015.13 1015.28 1015.68 1015.87 1016.24 1016.29 1016.36 1016.64 1016.91 1017.21
Wind_Speed
7 4 5 6 8 10 13 12 13 12 9 10 8 7 3 5 5 6 10 7 11 11 13 12 13 13 12 13 15 13 13 14 14
10 7 7 9 10 9 13 11 12 10 8 8 7 3 3 4 4 7 6 6 9 9 10 13 12 12 11 11 12 12 12 12 13
9 8 9 11 12 11 12 11 11 11 9 6 4 4 5 8 6 7 7 6 9 9 8 10 10 10 10 10 9 11 10 11 10
9 8 9 10 12 12 12 12 13 13 11 8 3 6 6 4 3 9 5 7 8 8 7 7 8 7 8 8 8 8 8 9 10
9 8 10 11 12 12 12 14 13 12 11 9 8 6 8 4 3 4 6 10 7 8 7 6 6 6 6 5 7 6 6 7 7
7 8 11 10 12 12 13 12 12 11 10 9 8 7 4 4 4 4 12 11 8 8 7 5 5 4 3 3 4 4 4 5 5
8 8 11 12 12 12 13 13 11 9 4 4 6 3 6 4 5 4 12 11 9 8 8 6 5 4 3 2 1 2 2 3 3
6 4 5 5 8 6 8 7 5 6 5 5 5 6 6 4 4 7 13 11 11 10 8 7 6 5 4 3 2 1 1 2 2
5 5 6 7 6 7 7 6 7 8 8 9 8 8 6 3 4 6 12 10 11 11 10 9 8 7 5 5 4 3 3 4 5
4 5 7 6 7 8 7 7 8 9 9 7 10 9 7 5 4 4 11 10 9 12 11 10 9 8 7 6 6 5 6 6 7
6 5 6 8 8 9 8 8 8 9 8 6 7 7 5 5 5 5 6 11 9 10 13 13 12 11 10 9 8 8 8 9 9
7 7 5 8 9 10 8 9 8 5 8 7 6 6 7 5 6 7 5 6 10 10 14 14 14 13 12 11 11 11 11 11 10
5 6 6 6 7 8 7 8 9 7 5 5 5 5 6 7 7 6 6 6 6 8 11 12 13 14 14 14 12 13 13 12 12
7 6 5 7 6 6 7 8 9 8 5 5 5 5 5 6 6 7 7 9 8 7 12 13 12 10 13 15 16 15 14 10 9
8 6 9 5 7 9 7 9 9 8 9 6 6 4 5 5 5 6 6 7 7 8 9 9 9 13 12 15 17 16 15 11 8
9 8 6 9 8 10 12 9 9 8 9 3 2 3 6 6 5 5 5 6 7 7 6 6 6 7 17 17 19 19 18 16 13
13 7 11 11 8 10 12 11 8 8 6 8 5 3 3 4 6 5 6 7 5 7 9 7 9 8 7 11 19 18 19 18 15
13 14 8 12 10 10 10 11 12 9 7 9 6 4 6 3 3 7 6 8 6 9 9 11 9 9 6 9 12 17 18 19 18
14 13 14 10 10 11 11 10 12 13 9 4 9 3 4 4 2 4 8 8 9 9 7 8 8 7 6 8 12 15 16 18 18
15 13 12 12 10 9 13 12 13 10 9 8 7 9 2 3 3 4 7 8 9 8 9 8 8 10 9 7 8 15 16 18 17
Wind_Direction
163 190 126 138 132 139 131 135 110 127 134 136 147 174 224 275 195 76 84 75 94 97 99 89 91 84 84 77 75 75 73 66 72
167 188 145 139 143 145 135 131 125 136 143 147 174 226 281 295 107 104 99 110 108 95 93 104 90 96 93 77 82 74 71 71 67
170 188 162 150 151 149 145 136 148 150 153 161 198 258 281 329 99 89 104 123 114 106 95 95 102 98 98 91 82 76 69 72 65
182 179 172 165 158 157 152 150 158 160 160 157 231 267 297 313 125 124 108 117 121 109 119 119 120 103 101 97 86 90 71 64 54
193 181 182 175 166 163 164 160 164 165 158 160 185 248 289 290 143 133 134 137 138 135 133 125 100 107 110 96 90 77 72 68 57
196 186 181 175 170 167 167 168 171 161 155 170 196 216 232 237 151 136 143 137 162 150 145 143 134 129 125 104 89 86 70 62 49
193 184 177 174 172 172 176 172 168 156 160 173 206 239 254 234 134 146 145 152 168 164 155 161 164 157 164 148 114 91 75 61 38
191 162 171 174 179 179 175 169 168 198 186 173 185 230 249 227 124 152 151 165 179 181 174 178 181 189 194 209 213 221 287 324 321
203 162 169 174 180 183 182 179 188 204 224 177 186 213 235 200 128 159 158 169 191 190 185 193 197 210 213 218 236 255 270 289 295
223 184 175 183 181 191 192 189 195 210 213 191 191 204 221 186 136 152 167 173 206 194 201 202 205 212 229 232 242 254 270 278 280
200 216 188 191 189 195 192 195 204 205 208 216 191 197 195 184 166 155 178 174 196 215 205 205 211 216 220 228 237 248 259 265 274
199 216 211 189 197 200 193 195 209 217 206 199 199 188 184 197 191 150 167 186 192 205 213 218 214 217 223 230 237 241 250 256 263
209 206 216 209 197 203 193 196 206 213 205 197 202 194 183 185 191 182 164 180 191 205 216 221 229 222 226 233 241 245 248 248 253
199 220 224 193 197 214 203 206 198 207 211 195 198 197 189 190 189 186 191 176 187 192 209 214 227 236 232 235 239 245 248 251 254
215 201 210 215 206 209 218 212 205 199 206 198 199 199 194 190 193 197 192 193 186 178 197 209 217 222 229 237 243 249 255 260 259
212 210 203 202 209 214 209 214 211 205 201 160 202 215 207 194 195 201 203 197 195 193 190 189 202 214 225 227 234 241 247 252 255
225 210 207 208 205 204 206 202 208 214 215 188 176 202 260 242 201 191 200 207 200 192 200 197 195 202 211 220 226 231 239 244 247
220 221 224 208 210 212 205 201 195 208 212 211 155 169 212 181 221 205 201 204 206 204 200 200 208 212 191 206 216 220 227 237 243
231 216 215 219 207 213 209 211 211 203 205 209 229 173 144 182 219 238 214 209 217 208 200 213 209 205 210 206 204 204 213 224 236
228 226 212 218 224 215 207 200 203 201 202 202 198 236 194 271 130 225 208 216 217 215 205 200 202 210 208 218 208 200 208 217 228